RNA1749 WIBB-WIHH

Flight info

Callsign RNA1749
Flight time 1h 38m
Altitude 37000
Route JATAM A585 PLB G461 BIDAK
Aircraft A20N/M-SDE2E3FGHIRWXY/LB1

Departure

Time 2026-04-28 09:38
Airport Sultan Syarif Kasim II International Airport / Roesmin Nurjadin AFB (WIBB)

Arrival

Time 2026-04-28 11:16
Airport Halim Perdanakusuma International Airport (WIHH)
Time Latitude Longitude Altitude Speed Heading
2026-04-28 09:18 0.46548 101.44598 137 ft 0 kts 122°
2026-04-28 09:28 0.46550 101.44593 137 ft 2 kts 121°
2026-04-28 09:28 0.46559 101.44580 138 ft 2 kts 125°
2026-04-28 09:29 0.46569 101.44566 138 ft 2 kts 99°
2026-04-28 09:29 0.46570 101.44549 138 ft 2 kts 78°
2026-04-28 09:29 0.46563 101.44542 138 ft 0 kts 357°
2026-04-28 09:34 0.46594 101.44540 138 ft 14 kts 357°
2026-04-28 09:35 0.46620 101.44530 139 ft 1 kts 296°
2026-04-28 09:35 0.46627 101.44500 139 ft 11 kts 310°
2026-04-28 09:35 0.46723 101.44470 141 ft 18 kts
2026-04-28 09:35 0.46837 101.44474 142 ft 18 kts
2026-04-28 09:36 0.46973 101.44480 142 ft 17 kts
2026-04-28 09:36 0.47052 101.44509 142 ft 10 kts
2026-04-28 09:36 0.47081 101.44484 142 ft 2 kts 242°
2026-04-28 09:36 0.47052 101.44477 142 ft 9 kts 194°
2026-04-28 09:37 0.47031 101.44478 142 ft 4 kts 173°
2026-04-28 09:37 0.46801 101.44473 142 ft 71 kts 180°
2026-04-28 09:37 0.46066 101.44455 132 ft 137 kts 181°
2026-04-28 09:37 0.44965 101.44411 394 ft 164 kts 180°
2026-04-28 09:38 0.43849 101.44355 1017 ft 163 kts 180°
2026-04-28 09:38 0.42638 101.44327 1433 ft 194 kts 177°
2026-04-28 09:38 0.41192 101.44471 1906 ft 225 kts 161°
2026-04-28 09:38 0.39830 101.45386 2441 ft 249 kts 129°
2026-04-28 09:39 0.38889 101.46890 3213 ft 261 kts 117°
2026-04-28 09:39 0.38026 101.48522 4084 ft 274 kts 118°
2026-04-28 09:39 0.36998 101.50220 4521 ft 297 kts 124°
2026-04-28 09:39 0.35798 101.51865 4679 ft 285 kts 128°
2026-04-28 09:40 0.34581 101.53345 4742 ft 268 kts 130°
2026-04-28 09:40 0.33364 101.54751 4749 ft 271 kts 131°
2026-04-28 09:40 0.32123 101.56167 4748 ft 270 kts 131°
2026-04-28 09:40 0.30887 101.57575 4745 ft 270 kts 131°
2026-04-28 09:41 0.29651 101.58986 4747 ft 270 kts 131°
2026-04-28 09:41 0.28415 101.60402 4743 ft 271 kts 131°
2026-04-28 09:41 0.27177 101.61827 4815 ft 273 kts 131°
2026-04-28 09:41 0.25929 101.63269 5321 ft 275 kts 131°
2026-04-28 09:42 0.24682 101.64713 6249 ft 274 kts 131°
2026-04-28 09:42 0.23429 101.66165 7033 ft 278 kts 131°
2026-04-28 09:42 0.22157 101.67641 7807 ft 282 kts 131°
2026-04-28 09:42 0.20877 101.69132 8578 ft 285 kts 131°
2026-04-28 09:43 0.19575 101.70649 9286 ft 290 kts 131°
2026-04-28 09:43 0.18254 101.72186 9618 ft 292 kts 131°
2026-04-28 09:43 0.16932 101.73724 9717 ft 292 kts 131°
2026-04-28 09:43 0.15607 101.75265 9744 ft 292 kts 131°
2026-04-28 09:44 0.14283 101.76808 9751 ft 296 kts 131°
2026-04-28 09:44 0.12890 101.78429 9751 ft 326 kts 131°
2026-04-28 09:44 0.11374 101.80190 9769 ft 339 kts 131°
2026-04-28 09:44 0.09819 101.81989 10153 ft 343 kts 131°
2026-04-28 09:45 0.08261 101.83785 10931 ft 343 kts 131°
2026-04-28 09:45 0.06688 101.85594 11590 ft 347 kts 131°
2026-04-28 09:45 0.05097 101.87425 12235 ft 350 kts 131°
2026-04-28 09:45 0.03493 101.89271 12867 ft 354 kts 131°
2026-04-28 09:46 0.01868 101.91145 13515 ft 358 kts 131°
2026-04-28 09:46 0.00231 101.93033 14109 ft 361 kts 131°
2026-04-28 09:46 -0.01425 101.94942 14533 ft 365 kts 131°
2026-04-28 09:46 -0.03090 101.96861 14696 ft 366 kts 131°
2026-04-28 09:47 -0.04759 101.98786 14765 ft 367 kts 131°
2026-04-28 09:47 -0.06437 102.00725 15127 ft 370 kts 131°
2026-04-28 09:47 -0.08120 102.02668 15771 ft 371 kts 131°
2026-04-28 09:47 -0.09817 102.04625 16319 ft 374 kts 131°
2026-04-28 09:48 -0.11529 102.06598 16841 ft 377 kts 131°
2026-04-28 09:48 -0.13255 102.08589 17362 ft 381 kts 131°
2026-04-28 09:48 -0.14994 102.10594 17873 ft 384 kts 131°
2026-04-28 09:48 -0.16748 102.12617 18365 ft 386 kts 131°
2026-04-28 09:49 -0.18510 102.14650 18823 ft 388 kts 131°
2026-04-28 09:49 -0.20284 102.16697 19273 ft 391 kts 131°
2026-04-28 09:49 -0.22069 102.18756 19713 ft 394 kts 131°
2026-04-28 09:49 -0.23867 102.20831 20156 ft 396 kts 131°
2026-04-28 09:50 -0.25677 102.22916 20598 ft 398 kts 131°
2026-04-28 09:50 -0.27498 102.25011 21028 ft 401 kts 131°
2026-04-28 09:50 -0.29333 102.27121 21459 ft 403 kts 131°
2026-04-28 09:50 -0.31178 102.29245 21880 ft 406 kts 131°
2026-04-28 09:51 -0.33035 102.31381 22302 ft 408 kts 131°
2026-04-28 09:51 -0.34826 102.33444 22701 ft 411 kts 131°
2026-04-28 09:53 -0.36542 102.35426 23070 ft 413 kts 131°
2026-04-28 09:53 -0.37114 102.36086 23193 ft 414 kts 131°
2026-04-28 09:53 -0.38978 102.38239 23554 ft 416 kts 131°
2026-04-28 09:53 -0.40876 102.40430 23889 ft 418 kts 131°
2026-04-28 09:54 -0.42786 102.42634 24223 ft 420 kts 131°
2026-04-28 09:54 -0.44705 102.44849 24541 ft 423 kts 131°
2026-04-28 09:54 -0.46634 102.47075 24861 ft 425 kts 131°
2026-04-28 09:54 -0.48576 102.49316 25184 ft 427 kts 131°
2026-04-28 09:55 -0.50524 102.51561 25497 ft 429 kts 131°
2026-04-28 09:55 -0.52582 102.53732 25813 ft 432 kts 137°
2026-04-28 09:55 -0.54815 102.55762 26078 ft 435 kts 137°
2026-04-28 09:55 -0.57058 102.57804 26380 ft 437 kts 136°
2026-04-28 09:56 -0.59279 102.59883 26682 ft 439 kts 135°
2026-04-28 09:56 -0.61487 102.61997 26968 ft 441 kts 135°
2026-04-28 09:56 -0.63691 102.64133 27260 ft 443 kts 134°
2026-04-28 09:56 -0.65901 102.66287 27538 ft 445 kts 134°
2026-04-28 09:57 -0.68118 102.68452 27818 ft 447 kts 134°
2026-04-28 09:57 -0.70346 102.70626 28087 ft 449 kts 134°
2026-04-28 09:57 -0.72582 102.72806 28346 ft 451 kts 134°
2026-04-28 09:57 -0.74833 102.74997 28620 ft 452 kts 134°
2026-04-28 09:58 -0.77092 102.77197 28869 ft 454 kts 134°
2026-04-28 09:58 -0.79360 102.79401 29123 ft 456 kts 134°
2026-04-28 09:58 -0.81640 102.81615 29379 ft 458 kts 133°
2026-04-28 09:58 -0.83931 102.83837 29623 ft 460 kts 133°
2026-04-28 09:59 -0.86230 102.86068 29866 ft 462 kts 133°
2026-04-28 09:59 -0.88537 102.88307 30080 ft 463 kts 133°
2026-04-28 09:59 -0.90820 102.90522 30302 ft 464 kts 133°
2026-04-28 09:59 -0.93139 102.92772 30529 ft 466 kts 133°
2026-04-28 10:00 -0.95469 102.95031 30757 ft 467 kts 133°
2026-04-28 10:00 -0.97803 102.97294 31011 ft 468 kts 133°
2026-04-28 10:00 -1.00136 102.99555 31320 ft 467 kts 133°
2026-04-28 10:00 -1.02461 103.01808 31636 ft 466 kts 133°
2026-04-28 10:01 -1.04785 103.04059 31938 ft 465 kts 133°
2026-04-28 10:01 -1.06611 103.05827 32169 ft 464 kts 133°
2026-04-28 10:01 -1.08923 103.08066 32461 ft 463 kts 133°
2026-04-28 10:01 -1.11234 103.10303 32752 ft 462 kts 133°
2026-04-28 10:02 -1.13540 103.12534 33042 ft 461 kts 133°
2026-04-28 10:02 -1.15840 103.14760 33324 ft 460 kts 133°
2026-04-28 10:02 -1.18135 103.16979 33597 ft 459 kts 133°
2026-04-28 10:02 -1.20429 103.19198 33852 ft 458 kts 133°
2026-04-28 10:03 -1.22715 103.21409 34062 ft 457 kts 133°
2026-04-28 10:03 -1.25000 103.23618 34263 ft 457 kts 133°
2026-04-28 10:03 -1.27286 103.25827 34456 ft 457 kts 133°
2026-04-28 10:03 -1.29565 103.28030 34660 ft 456 kts 133°
2026-04-28 10:04 -1.31848 103.30237 34830 ft 456 kts 133°
2026-04-28 10:04 -1.33867 103.32189 34991 ft 455 kts 133°
2026-04-28 10:06 -1.36119 103.34365 35178 ft 455 kts 133°
2026-04-28 10:06 -1.38394 103.36564 35359 ft 455 kts 133°
2026-04-28 10:06 -1.40667 103.38762 35544 ft 455 kts 133°
2026-04-28 10:06 -1.42939 103.40958 35731 ft 454 kts 133°
2026-04-28 10:07 -1.45208 103.43152 35907 ft 454 kts 133°
2026-04-28 10:07 -1.47477 103.45345 36086 ft 454 kts 133°
2026-04-28 10:07 -1.49744 103.47537 36254 ft 453 kts 133°
2026-04-28 10:07 -1.52013 103.49731 36426 ft 453 kts 133°
2026-04-28 10:08 -1.54276 103.51919 36592 ft 453 kts 134°
2026-04-28 10:08 -1.56539 103.54107 36753 ft 453 kts 134°
2026-04-28 10:08 -1.61066 103.58483 36807 ft 452 kts 134°
2026-04-28 10:09 -1.65584 103.62850 36808 ft 452 kts 134°
2026-04-28 10:09 -1.69331 103.66471 36806 ft 452 kts 134°
2026-04-28 10:10 -1.74615 103.71579 36804 ft 452 kts 134°
2026-04-28 10:10 -1.78371 103.75210 36804 ft 452 kts 134°
2026-04-28 10:11 -1.82890 103.79578 36804 ft 452 kts 134°
2026-04-28 10:11 -1.87416 103.83953 36804 ft 452 kts 134°
2026-04-28 10:12 -1.91938 103.88324 36804 ft 452 kts 134°
2026-04-28 10:12 -1.96461 103.92698 36802 ft 452 kts 134°
2026-04-28 10:13 -2.00983 103.97069 36800 ft 452 kts 134°
2026-04-28 10:13 -2.05475 104.01412 36803 ft 452 kts 134°
2026-04-28 10:14 -2.09998 104.05785 36802 ft 452 kts 134°
2026-04-28 10:14 -2.14518 104.10157 36801 ft 452 kts 134°
2026-04-28 10:15 -2.19039 104.14528 36803 ft 452 kts 134°
2026-04-28 10:15 -2.23561 104.18901 36800 ft 452 kts 134°
2026-04-28 10:16 -2.28078 104.23271 36798 ft 452 kts 134°
2026-04-28 10:16 -2.32596 104.27641 36800 ft 452 kts 134°
2026-04-28 10:17 -2.37116 104.32014 36800 ft 452 kts 134°
2026-04-28 10:17 -2.41635 104.36386 36796 ft 452 kts 134°
2026-04-28 10:18 -2.46144 104.40749 36800 ft 451 kts 134°
2026-04-28 10:18 -2.50661 104.45120 36797 ft 451 kts 134°
2026-04-28 10:19 -2.55171 104.49485 36796 ft 451 kts 134°
2026-04-28 10:19 -2.59681 104.53849 36794 ft 451 kts 134°
2026-04-28 10:20 -2.64189 104.58212 36793 ft 451 kts 134°
2026-04-28 10:20 -2.68664 104.62544 36796 ft 451 kts 134°
2026-04-28 10:21 -2.73173 104.66908 36794 ft 451 kts 134°
2026-04-28 10:21 -2.77679 104.71272 36791 ft 451 kts 134°
2026-04-28 10:22 -2.82187 104.75636 36793 ft 451 kts 134°
2026-04-28 10:22 -2.86695 104.80002 36793 ft 451 kts 133°
2026-04-28 10:23 -2.91205 104.84370 36795 ft 452 kts 133°
2026-04-28 10:23 -2.95720 104.88744 36796 ft 452 kts 133°
2026-04-28 10:24 -3.00234 104.93118 36796 ft 452 kts 133°
2026-04-28 10:24 -3.04756 104.97499 36796 ft 452 kts 133°
2026-04-28 10:25 -3.09275 105.01878 36799 ft 452 kts 133°
2026-04-28 10:25 -3.13796 105.06260 36800 ft 453 kts 133°
2026-04-28 10:26 -3.18323 105.10648 36808 ft 453 kts 133°
2026-04-28 10:26 -3.22850 105.15037 36797 ft 452 kts 133°
2026-04-28 10:27 -3.27361 105.19409 36799 ft 451 kts 133°
2026-04-28 10:27 -3.31865 105.23777 36798 ft 451 kts 133°
2026-04-28 10:28 -3.36374 105.28151 36800 ft 451 kts 133°
2026-04-28 10:29 -3.43132 105.34707 36801 ft 451 kts 133°
2026-04-28 10:29 -3.47609 105.39051 36804 ft 451 kts 133°
2026-04-28 10:30 -3.52113 105.43421 36810 ft 451 kts 133°
2026-04-28 10:30 -3.56617 105.47792 36810 ft 451 kts 133°
2026-04-28 10:31 -3.61098 105.52185 36591 ft 451 kts 130°
2026-04-28 10:31 -3.63138 105.54565 36343 ft 450 kts 127°
2026-04-28 10:31 -3.65119 105.56993 36096 ft 451 kts 127°
2026-04-28 10:31 -3.67107 105.59421 35852 ft 452 kts 127°
2026-04-28 10:32 -3.69113 105.61844 35627 ft 450 kts 128°
2026-04-28 10:32 -3.71120 105.64241 35392 ft 450 kts 128°
2026-04-28 10:32 -3.73145 105.66642 35163 ft 452 kts 128°
2026-04-28 10:32 -3.75176 105.69041 34934 ft 453 kts 128°
2026-04-28 10:33 -3.77216 105.71446 34708 ft 453 kts 128°
2026-04-28 10:33 -3.79258 105.73852 34482 ft 454 kts 128°
2026-04-28 10:33 -3.81305 105.76264 34259 ft 455 kts 128°
2026-04-28 10:33 -3.83353 105.78680 34040 ft 455 kts 129°
2026-04-28 10:34 -3.85403 105.81099 33815 ft 456 kts 128°
2026-04-28 10:34 -3.87455 105.83523 33560 ft 457 kts 129°
2026-04-28 10:34 -3.89510 105.85952 33308 ft 457 kts 129°
2026-04-28 10:34 -3.91568 105.88387 33060 ft 458 kts 129°
2026-04-28 10:35 -3.93627 105.90823 32812 ft 459 kts 129°
2026-04-28 10:35 -3.95692 105.93268 32566 ft 460 kts 129°
2026-04-28 10:35 -3.97759 105.95715 32320 ft 461 kts 129°
2026-04-28 10:35 -3.99832 105.98171 32079 ft 462 kts 129°
2026-04-28 10:36 -4.01907 106.00628 31841 ft 463 kts 129°
2026-04-28 10:36 -4.03905 106.03102 31607 ft 463 kts 125°
2026-04-28 10:36 -4.05819 106.05750 31360 ft 464 kts 128°
2026-04-28 10:36 -4.08048 106.08035 31143 ft 466 kts 136°
2026-04-28 10:37 -4.10505 106.10160 30909 ft 467 kts 138°
2026-04-28 10:37 -4.13001 106.12245 30685 ft 468 kts 138°
2026-04-28 10:37 -4.15487 106.14349 30454 ft 467 kts 137°
2026-04-28 10:37 -4.17939 106.16475 30221 ft 465 kts 137°
2026-04-28 10:38 -4.20365 106.18615 30003 ft 464 kts 136°
2026-04-28 10:38 -4.22767 106.20755 29889 ft 462 kts 136°
2026-04-28 10:38 -4.25161 106.22898 29837 ft 462 kts 136°
2026-04-28 10:39 -4.29795 106.27047 29836 ft 463 kts 136°
2026-04-28 10:39 -4.34596 106.31343 29834 ft 463 kts 136°
2026-04-28 10:40 -4.39388 106.35623 29835 ft 463 kts 136°
2026-04-28 10:40 -4.44191 106.39910 29836 ft 463 kts 136°
2026-04-28 10:41 -4.48997 106.44198 29837 ft 463 kts 136°
2026-04-28 10:41 -4.53801 106.48485 29837 ft 462 kts 136°
2026-04-28 10:42 -4.58609 106.52775 29835 ft 463 kts 136°
2026-04-28 10:42 -4.63414 106.57064 29838 ft 463 kts 136°
2026-04-28 10:43 -4.68222 106.61355 29837 ft 462 kts 136°
2026-04-28 10:43 -4.73029 106.65645 29839 ft 463 kts 136°
2026-04-28 10:44 -4.77831 106.69930 29835 ft 462 kts 136°
2026-04-28 10:44 -4.82641 106.74224 29837 ft 463 kts 136°
2026-04-28 10:45 -4.87449 106.78514 29838 ft 463 kts 136°
2026-04-28 10:45 -4.92254 106.82804 29596 ft 462 kts 136°
2026-04-28 10:45 -4.94644 106.84938 29334 ft 459 kts 136°
2026-04-28 10:46 -4.97025 106.87063 29076 ft 457 kts 136°
2026-04-28 10:46 -4.99390 106.89175 28814 ft 455 kts 136°
2026-04-28 10:46 -5.01717 106.91252 28566 ft 453 kts 136°
2026-04-28 10:46 -5.04062 106.93346 28316 ft 451 kts 136°
2026-04-28 10:47 -5.06403 106.95438 28063 ft 449 kts 136°
2026-04-28 10:47 -5.08732 106.97519 27812 ft 447 kts 136°
2026-04-28 10:47 -5.11050 106.99590 27568 ft 445 kts 136°
2026-04-28 10:47 -5.13360 107.01654 27321 ft 444 kts 136°
2026-04-28 10:48 -5.15659 107.03709 27072 ft 442 kts 136°
2026-04-28 10:48 -5.17948 107.05754 26837 ft 440 kts 136°
2026-04-28 10:48 -5.20230 107.07794 26596 ft 438 kts 136°
2026-04-28 10:48 -5.22502 107.09824 26362 ft 437 kts 136°
2026-04-28 10:49 -5.24767 107.11849 26128 ft 435 kts 136°
2026-04-28 10:49 -5.27023 107.13865 25900 ft 433 kts 136°
2026-04-28 10:49 -5.29270 107.15875 25667 ft 432 kts 136°
2026-04-28 10:49 -5.31508 107.17875 25439 ft 430 kts 136°
2026-04-28 10:50 -5.33734 107.19866 25209 ft 428 kts 136°
2026-04-28 10:50 -5.35254 107.21195 25054 ft 427 kts 139°
2026-04-28 10:50 -5.38384 107.23569 24638 ft 426 kts 142°
2026-04-28 10:50 -5.40792 107.25321 24044 ft 428 kts 143°
2026-04-28 10:51 -5.43206 107.27057 23473 ft 426 kts 143°
2026-04-28 10:51 -5.45611 107.28777 22823 ft 423 kts 143°
2026-04-28 10:51 -5.47988 107.30471 22328 ft 416 kts 143°
2026-04-28 10:51 -5.50330 107.32140 21776 ft 411 kts 143°
2026-04-28 10:52 -5.52646 107.33790 21237 ft 406 kts 143°
2026-04-28 10:52 -5.54938 107.35424 20678 ft 402 kts 143°
2026-04-28 10:52 -5.57208 107.37044 20118 ft 399 kts 143°
2026-04-28 10:52 -5.59458 107.38650 19584 ft 395 kts 143°
2026-04-28 10:53 -5.61694 107.40248 19059 ft 392 kts 143°
2026-04-28 10:53 -5.63911 107.41834 18517 ft 390 kts 143°
2026-04-28 10:53 -5.66117 107.43412 17937 ft 388 kts 143°
2026-04-28 10:53 -5.68301 107.44976 17421 ft 384 kts 143°
2026-04-28 10:54 -5.70462 107.46526 16894 ft 380 kts 143°
2026-04-28 10:54 -5.72602 107.48062 16371 ft 376 kts 143°
2026-04-28 10:54 -5.74717 107.49580 15849 ft 373 kts 143°
2026-04-28 10:54 -5.76819 107.51093 15334 ft 370 kts 143°
2026-04-28 10:55 -5.78905 107.52595 14798 ft 368 kts 143°
2026-04-28 10:55 -5.80980 107.54086 14314 ft 365 kts 143°
2026-04-28 10:55 -5.83044 107.55567 13784 ft 364 kts 143°
2026-04-28 10:55 -5.85093 107.57038 13283 ft 360 kts 143°
2026-04-28 10:56 -5.87119 107.58494 12785 ft 357 kts 143°
2026-04-28 10:56 -5.89126 107.59936 12296 ft 353 kts 143°
2026-04-28 10:56 -5.90445 107.60884 11972 ft 351 kts 143°
2026-04-28 10:56 -5.93311 107.62265 11511 ft 347 kts 166°
2026-04-28 10:57 -5.95722 107.62374 11049 ft 350 kts 187°
2026-04-28 10:57 -5.98006 107.61605 10779 ft 347 kts 209°
2026-04-28 10:57 -5.99318 107.60627 10727 ft 351 kts 223°
2026-04-28 10:57 -6.01216 107.58007 10685 ft 348 kts 238°
2026-04-28 10:58 -6.02390 107.55913 10597 ft 338 kts 240°
2026-04-28 10:58 -6.03154 107.54538 10528 ft 330 kts 239°
2026-04-28 10:58 -6.04269 107.52606 10425 ft 317 kts 237°
2026-04-28 10:58 -6.05406 107.50744 10166 ft 310 kts 236°
2026-04-28 10:59 -6.06569 107.48926 9802 ft 308 kts 235°
2026-04-28 10:59 -6.07734 107.47147 9571 ft 300 kts 234°
2026-04-28 10:59 -6.08888 107.45400 9416 ft 302 kts 234°
2026-04-28 10:59 -6.10051 107.43643 9258 ft 302 kts 234°
2026-04-28 11:00 -6.11208 107.41890 9112 ft 300 kts 234°
2026-04-28 11:00 -6.12358 107.40144 8948 ft 299 kts 234°
2026-04-28 11:00 -6.13504 107.38400 8797 ft 299 kts 234°
2026-04-28 11:00 -6.14649 107.36656 8642 ft 299 kts 234°
2026-04-28 11:01 -6.15789 107.34915 8481 ft 298 kts 234°
2026-04-28 11:01 -6.16927 107.33177 8334 ft 297 kts 234°
2026-04-28 11:01 -6.18061 107.31445 8180 ft 296 kts 234°
2026-04-28 11:01 -6.19192 107.29717 8027 ft 296 kts 234°
2026-04-28 11:02 -6.20316 107.27991 7870 ft 295 kts 234°
2026-04-28 11:02 -6.21424 107.26255 7722 ft 294 kts 235°
2026-04-28 11:02 -6.22519 107.24519 7572 ft 294 kts 235°
2026-04-28 11:02 -6.23610 107.22787 7421 ft 293 kts 235°
2026-04-28 11:03 -6.24698 107.21060 7266 ft 292 kts 235°
2026-04-28 11:03 -6.25786 107.19335 7121 ft 292 kts 235°
2026-04-28 11:03 -6.26873 107.17613 6965 ft 291 kts 235°
2026-04-28 11:03 -6.27957 107.15896 6815 ft 290 kts 235°
2026-04-28 11:04 -6.29038 107.14184 6666 ft 290 kts 235°
2026-04-28 11:04 -6.30116 107.12473 6512 ft 289 kts 236°
2026-04-28 11:04 -6.31177 107.10760 6363 ft 289 kts 236°
2026-04-28 11:04 -6.32227 107.09048 6211 ft 287 kts 236°
2026-04-28 11:05 -6.33274 107.07338 6062 ft 286 kts 236°
2026-04-28 11:05 -6.34318 107.05634 5906 ft 286 kts 236°
2026-04-28 11:05 -6.35358 107.03936 5762 ft 285 kts 236°
2026-04-28 11:05 -6.36395 107.02244 5611 ft 284 kts 236°
2026-04-28 11:06 -6.37431 107.00554 5462 ft 283 kts 236°
2026-04-28 11:06 -6.38463 106.98869 5317 ft 282 kts 236°
2026-04-28 11:06 -6.39474 106.97218 5240 ft 273 kts 236°
2026-04-28 11:06 -6.40358 106.95565 5060 ft 265 kts 246°
2026-04-28 11:07 -6.40882 106.93819 4892 ft 258 kts 257°
2026-04-28 11:07 -6.41215 106.92043 4757 ft 260 kts 259°
2026-04-28 11:07 -6.41528 106.90259 4616 ft 258 kts 259°
2026-04-28 11:07 -6.41838 106.88485 4481 ft 257 kts 259°
2026-04-28 11:08 -6.42145 106.86741 4348 ft 257 kts 259°
2026-04-28 11:08 -6.42460 106.84977 4209 ft 256 kts 259°
2026-04-28 11:08 -6.42775 106.83230 4086 ft 253 kts 259°
2026-04-28 11:08 -6.43090 106.81498 4031 ft 247 kts 259°
2026-04-28 11:09 -6.43253 106.79839 3969 ft 233 kts 278°
2026-04-28 11:09 -6.42660 106.78405 3861 ft 219 kts 312°
2026-04-28 11:09 -6.41475 106.77605 3825 ft 197 kts 342°
2026-04-28 11:09 -6.40260 106.77198 3727 ft 170 kts 342°
2026-04-28 11:10 -6.39215 106.76811 3570 ft 151 kts 339°
2026-04-28 11:10 -6.38259 106.76418 3280 ft 147 kts 338°
2026-04-28 11:10 -6.37323 106.76007 2960 ft 147 kts 336°
2026-04-28 11:10 -6.36400 106.75588 2690 ft 143 kts 336°
2026-04-28 11:11 -6.35452 106.75153 2549 ft 152 kts 335°
2026-04-28 11:11 -6.34507 106.74718 2530 ft 149 kts 335°
2026-04-28 11:11 -6.33507 106.74402 2529 ft 149 kts 360°
2026-04-28 11:11 -6.32536 106.74686 2518 ft 147 kts 34°
2026-04-28 11:12 -6.31912 106.75465 2369 ft 142 kts 69°
2026-04-28 11:12 -6.31655 106.76418 2068 ft 141 kts 75°
2026-04-28 11:12 -6.31407 106.77372 1744 ft 139 kts 74°
2026-04-28 11:12 -6.31148 106.78308 1592 ft 141 kts 73°
2026-04-28 11:13 -6.30870 106.79263 1529 ft 143 kts 72°
2026-04-28 11:13 -6.30586 106.80218 1532 ft 142 kts 72°
2026-04-28 11:13 -6.30301 106.81171 1535 ft 142 kts 71°
2026-04-28 11:13 -6.29910 106.82093 1519 ft 145 kts 63°
2026-04-28 11:14 -6.29480 106.82983 1415 ft 138 kts 63°
2026-04-28 11:14 -6.29071 106.83837 1147 ft 135 kts 64°
2026-04-28 11:14 -6.28672 106.84695 870 ft 136 kts 63°
2026-04-28 11:14 -6.28286 106.85539 658 ft 130 kts 63°
2026-04-28 11:15 -6.27902 106.86397 485 ft 136 kts 63°
2026-04-28 11:15 -6.27522 106.87247 264 ft 134 kts 63°
2026-04-28 11:15 -6.27120 106.88106 101 ft 134 kts 62°
2026-04-28 11:15 -6.26786 106.88831 90 ft 76 kts 65°
2026-04-28 11:16 -6.26694 106.89083 91 ft 4 kts 109°
2026-04-28 11:16 -6.26688 106.89101 91 ft 10 kts 56°
2026-04-28 11:16 -6.26618 106.89236 92 ft 22 kts 86°
2026-04-28 11:16 -6.26680 106.89311 91 ft 0 kts 163°
2026-04-28 11:17 -6.26751 106.89346 91 ft 21 kts 156°
2026-04-28 11:17 -6.26818 106.89375 91 ft 0 kts 156°